Tracking 17154 objects as of 3-August-2015
HD Live streaming from Space Station

NAVSTAR 33 (USA 92)

Track NAVSTAR 33 (USA 92) now!
NAVSTAR 33 (USA 92) is classified as:


NORAD ID: 22700
Int'l Code: 1993-042A
Perigee: 19,741.6 km
Apogee: 20,638.3 km
Inclination: 56.0 °
Period: 718.0 minutes
Semi major axis: 26560 km
RCS: 3.4011 m2 (large)
Launch date: June 26, 1993
Source: United States (US)
PRN:
Your satellite tracking list
Your tracking list is empty





NASA's NSSDC Master Catalog

Two Line Element Set (TLE):
1 22700U 93042A   15214.37615046 -.00000040  00000-0  00000+0 0  9998
2 22700 056.0431 308.1818 0168795 114.3852 154.2694 02.00557105161847

Source of the keplerian elements: AFSPC

N2YO: 281